When you browse on this site, cookies collect data to enhance your experience and personalize the content and advertising you see.
Visit our Privacy Policy to learn more. By continuing to use the site, you agree to this use of cookies and data.
  • In Österreich
  • Länderverzeichnis
  • Für 7 Tage
  • Wassertemperatur
  • Wetterkarte
  • News
  • Widgets
  • user-avatar
    Anmelden

    Stündliche Wetter Naftalan

    Heute, 9 Dezember, Montag

    Zeit Temperatur Niederschläge Wind Luftdruck Luftfeuchtigkeit
    00:00 +7°C° 0.5 mm 3 m/S 762 mmHg 83%
    01:00 +6°C° 0.7 mm 4 m/S 762 mmHg 85%
    02:00 +6°C° 0.7 mm 4 m/S 762 mmHg 87%
    03:00 +6°C° 0 mm 4 m/S 762 mmHg 89%
    04:00 +6°C° 0.6 mm 4 m/S 762 mmHg 89%
    05:00 +6°C° 0.6 mm 5 m/S 763 mmHg 89%
    06:00 +7°C° 0.6 mm 5 m/S 763 mmHg 89%
    07:00 +7°C° 0.4 mm 4 m/S 764 mmHg 89%
    08:00 +8°C° 0.4 mm 3 m/S 764 mmHg 89%
    09:00 +8°C° 0 mm 2 m/S 765 mmHg 89%
    10:00 +9°C° 0.4 mm 3 m/S 765 mmHg 88%
    11:00 +9°C° 0.4 mm 3 m/S 765 mmHg 88%
    12:00 +8°C° 0.4 mm 4 m/S 765 mmHg 87%
    13:00 +8°C° 0.2 mm 4 m/S 765 mmHg 84%
    14:00 +8°C° 0.2 mm 4 m/S 765 mmHg 81%
    15:00 +8°C° 0.2 mm 5 m/S 765 mmHg 79%
    16:00 +8°C° 0.1 mm 4 m/S 765 mmHg 80%
    17:00 +8°C° 0.1 mm 4 m/S 766 mmHg 82%
    18:00 +8°C° 0.1 mm 4 m/S 766 mmHg 83%
    19:00 +8°C° 0.3 mm 4 m/S 766 mmHg 84%
    20:00 +8°C° 0.3 mm 4 m/S 767 mmHg 84%
    21:00 +9°C° 0.3 mm 3 m/S 767 mmHg 85%
    22:00 +9°C° 0.3 mm 3 m/S 767 mmHg 85%
    23:00 +9°C° 0.3 mm 3 m/S 767 mmHg 85%

    Morgen, 10 Dezember, Dienstag

    Zeit Temperatur Niederschläge Wind Luftdruck Luftfeuchtigkeit
    00:00 +9°C° 0.3 mm 3 m/S 767 mmHg 85%
    01:00 +9°C° 0.2 mm 3 m/S 767 mmHg 86%
    02:00 +9°C° 0.2 mm 3 m/S 767 mmHg 87%
    03:00 +9°C° 0.2 mm 3 m/S 767 mmHg 87%
    04:00 +9°C° 0.1 mm 3 m/S 767 mmHg 87%
    05:00 +9°C° 0.1 mm 3 m/S 767 mmHg 87%
    06:00 +9°C° 0.1 mm 3 m/S 767 mmHg 87%
    07:00 +10°C° 0.1 mm 4 m/S 768 mmHg 86%
    08:00 +10°C° 0.1 mm 4 m/S 768 mmHg 85%
    09:00 +10°C° 0.1 mm 4 m/S 768 mmHg 84%
    10:00 +11°C° 0.1 mm 4 m/S 768 mmHg 83%
    11:00 +11°C° 0.1 mm 4 m/S 768 mmHg 82%
    12:00 +11°C° 0.1 mm 4 m/S 767 mmHg 82%
    13:00 +11°C° 0.2 mm 4 m/S 767 mmHg 82%
    14:00 +11°C° 0.2 mm 4 m/S 767 mmHg 82%
    15:00 +11°C° 0.2 mm 4 m/S 767 mmHg 82%
    16:00 +11°C° 0.2 mm 4 m/S 767 mmHg 83%
    17:00 +11°C° 0.2 mm 4 m/S 767 mmHg 85%
    18:00 +11°C° 0.2 mm 4 m/S 767 mmHg 86%
    19:00 +11°C° 0.2 mm 4 m/S 767 mmHg 86%
    20:00 +11°C° 0.2 mm 4 m/S 767 mmHg 86%
    21:00 +11°C° 0.2 mm 4 m/S 767 mmHg 86%
    22:00 +11°C° 0.3 mm 4 m/S 767 mmHg 87%
    23:00 +11°C° 0.3 mm 4 m/S 767 mmHg 88%

    übermorgen, 11 Dezember, Mittwoch

    Zeit Temperatur Niederschläge Wind Luftdruck Luftfeuchtigkeit
    00:00 +11°C° 0.3 mm 3 m/S 766 mmHg 89%
    01:00 +10°C° 0.3 mm 4 m/S 766 mmHg 90%
    02:00 +10°C° 0.3 mm 4 m/S 766 mmHg 91%
    03:00 +8°C° 0.3 mm 4 m/S 766 mmHg 92%
    04:00 +8°C° 0.1 mm 4 m/S 766 mmHg 90%
    05:00 +8°C° 0.1 mm 5 m/S 766 mmHg 89%
    06:00 +8°C° 0.1 mm 5 m/S 766 mmHg 88%
    07:00 +8°C° 0 mm 5 m/S 766 mmHg 85%
    08:00 +9°C° 0 mm 5 m/S 766 mmHg 83%
    09:00 +9°C° 0 mm 5 m/S 766 mmHg 80%
    10:00 +9°C° 0 mm 5 m/S 766 mmHg 76%
    11:00 +10°C° 0 mm 5 m/S 766 mmHg 73%
    12:00 +12°C° 0 mm 4 m/S 766 mmHg 70%
    13:00 +11°C° 0 mm 4 m/S 766 mmHg 70%
    14:00 +11°C° 0 mm 4 m/S 765 mmHg 70%
    15:00 +11°C° 0 mm 4 m/S 765 mmHg 70%
    16:00 +11°C° 0 mm 4 m/S 766 mmHg 72%
    17:00 +10°C° 0 mm 4 m/S 766 mmHg 74%
    18:00 +10°C° 0 mm 4 m/S 766 mmHg 76%
    19:00 +10°C° 0 mm 3 m/S 766 mmHg 77%
    20:00 +9°C° 0 mm 3 m/S 767 mmHg 77%
    21:00 +9°C° 0 mm 3 m/S 767 mmHg 77%
    22:00 +9°C° 0 mm 3 m/S 767 mmHg 77%
    23:00 +9°C° 0 mm 3 m/S 767 mmHg 76%

    12 Dezember, Donnerstag

    Zeit Temperatur Niederschläge Wind Luftdruck Luftfeuchtigkeit
    00:00 +8°C° 0 mm 2 m/S 767 mmHg 76%
    01:00 +8°C° 0 mm 2 m/S 766 mmHg 76%
    02:00 +8°C° 0 mm 2 m/S 766 mmHg 76%
    03:00 +8°C° 0 mm 2 m/S 766 mmHg 76%
    04:00 +9°C° 0 mm 1 m/S 766 mmHg 76%
    05:00 +9°C° 0 mm 1 m/S 766 mmHg 76%
    06:00 +9°C° 0 mm 1 m/S 766 mmHg 76%
    07:00 +10°C° 0 mm 1 m/S 766 mmHg 73%
    08:00 +11°C° 0 mm 1 m/S 766 mmHg 71%
    09:00 +10°C° 0 mm 2 m/S 766 mmHg 68%
    10:00 +12°C° 0 mm 2 m/S 766 mmHg 67%
    11:00 +12°C° 0 mm 2 m/S 765 mmHg 67%
    12:00 +12°C° 0 mm 2 m/S 765 mmHg 66%
    13:00 +12°C° 0 mm 2 m/S 764 mmHg 67%
    14:00 +11°C° 0 mm 3 m/S 764 mmHg 67%
    15:00 +11°C° 0 mm 3 m/S 763 mmHg 68%
    16:00 +11°C° 0 mm 3 m/S 763 mmHg 71%
    17:00 +11°C° 0 mm 3 m/S 763 mmHg 73%
    18:00 +10°C° 0 mm 3 m/S 763 mmHg 76%
    19:00 +10°C° 0 mm 3 m/S 763 mmHg 76%
    20:00 +11°C° 0 mm 3 m/S 763 mmHg 75%
    21:00 +11°C° 0 mm 3 m/S 763 mmHg 75%
    22:00 +11°C° 0 mm 3 m/S 762 mmHg 75%
    23:00 +12°C° 0 mm 2 m/S 762 mmHg 76%

    13 Dezember, Freitag

    Zeit Temperatur Niederschläge Wind Luftdruck Luftfeuchtigkeit
    00:00 +12°C° 0 mm 2 m/S 762 mmHg 76%
    01:00 +12°C° 0 mm 2 m/S 761 mmHg 78%
    02:00 +12°C° 0 mm 2 m/S 761 mmHg 79%
    03:00 +10°C° 0 mm 3 m/S 761 mmHg 80%
    04:00 +10°C° 0.1 mm 3 m/S 761 mmHg 81%
    05:00 +10°C° 0.1 mm 4 m/S 761 mmHg 83%
    06:00 +9°C° 0.1 mm 5 m/S 761 mmHg 84%
    07:00 +9°C° 0.4 mm 5 m/S 761 mmHg 84%
    08:00 +9°C° 0.4 mm 5 m/S 762 mmHg 85%
    09:00 +9°C° 0.4 mm 6 m/S 762 mmHg 85%
    10:00 +9°C° 0.5 mm 6 m/S 762 mmHg 85%
    11:00 +8°C° 0.5 mm 6 m/S 761 mmHg 85%
    12:00 +8°C° 0.5 mm 7 m/S 761 mmHg 84%
    13:00 +8°C° 0.4 mm 7 m/S 761 mmHg 82%
    14:00 +8°C° 0.4 mm 7 m/S 761 mmHg 80%
    15:00 +7°C° 0.4 mm 8 m/S 761 mmHg 78%
    16:00 +8°C° 0.1 mm 7 m/S 761 mmHg 79%
    17:00 +7°C° 0.1 mm 6 m/S 761 mmHg 79%
    18:00 +7°C° 0.1 mm 6 m/S 762 mmHg 79%
    19:00 +7°C° 0 mm 5 m/S 762 mmHg 79%
    20:00 +7°C° 0 mm 5 m/S 762 mmHg 78%
    21:00 +7°C° 0 mm 4 m/S 762 mmHg 78%
    22:00 +7°C° 0 mm 4 m/S 762 mmHg 77%
    23:00 +8°C° 0 mm 3 m/S 762 mmHg 77%

    14 Dezember, Samstag

    Zeit Temperatur Niederschläge Wind Luftdruck Luftfeuchtigkeit
    00:00 +8°C° 0 mm 3 m/S 762 mmHg 76%
    01:00 +8°C° 0 mm 2 m/S 762 mmHg 77%
    02:00 +8°C° 0 mm 2 m/S 762 mmHg 77%
    03:00 +8°C° 0 mm 2 m/S 762 mmHg 77%
    04:00 +8°C° 0 mm 2 m/S 762 mmHg 78%
    05:00 +8°C° 0 mm 2 m/S 762 mmHg 78%
    06:00 +8°C° 0 mm 2 m/S 762 mmHg 78%
    07:00 +8°C° 0 mm 2 m/S 762 mmHg 77%
    08:00 +8°C° 0 mm 2 m/S 762 mmHg 75%
    09:00 +9°C° 0 mm 2 m/S 763 mmHg 74%
    10:00 +9°C° 0 mm 2 m/S 762 mmHg 72%
    11:00 +10°C° 0 mm 2 m/S 762 mmHg 70%
    12:00 +10°C° 0 mm 2 m/S 762 mmHg 68%
    13:00 +10°C° 0 mm 2 m/S 761 mmHg 68%
    14:00 +12°C° 0 mm 2 m/S 761 mmHg 67%
    15:00 +12°C° 0 mm 2 m/S 761 mmHg 67%
    16:00 +10°C° 0 mm 2 m/S 761 mmHg 71%
    17:00 +10°C° 0 mm 2 m/S 761 mmHg 74%
    18:00 +9°C° 0 mm 2 m/S 761 mmHg 78%
    19:00 +9°C° 0 mm 2 m/S 762 mmHg 79%
    20:00 +9°C° 0 mm 2 m/S 762 mmHg 80%
    21:00 +9°C° 0 mm 2 m/S 762 mmHg 81%
    22:00 +9°C° 0 mm 2 m/S 763 mmHg 81%
    23:00 +9°C° 0 mm 3 m/S 763 mmHg 82%
    Mehr zeigen